Location: Newark
(46.7636°N, 1.8358°W)
Time: 12:58:36
(UTC+00:00)

Tiros 1 - Pass Details

Date: 26 October 2019
Orbit: 630 x 664 km, 48.4° (Epoch: 20 November)

Event Time Altitude Azimuth Distance (km) Brightness Sun altitude
Exits shadow 04:21:40 71° 193° (SSW) 704 7.1 -24.3°
Drops below altitude 10° 04:26:22 10° 119° (ESE) 2,078 10.5 -23.5°
Sets 04:28:43 0° 117° (ESE) 2,988 11.5 -23.1°
